Flag for U.S.A. Weather past 2 weeks in Vincennes, Indiana, U.S.A.

Now
65 °F

Passing clouds.


Feels Like: 65 °F
Forecast: 59 / 66 °F
Wind: 8 mph from East

Location: Lawrenceville-Vincennes International Airport

Current Time: Apr 19, 2015 at 4:27:46 AM

Latest Report: Apr 19, 2015 at 3:53 AM


Visibility: 10 mi

Pressure: 29.78 "Hg

Humidity: 54%

Dew point: 48 °F

Location of VincennesLocation

Historic Weather in Vincennes — Graph

°F

Vincennes temperature yesterday

Maximum temperature yesterday: 79 °F (at 5:53 PM)
Minimum temperature yesterday: 54 °F (at 3:53 AM)
Average temperature yesterday: 66 °F

Past Weeks' High & Low Weather Summary

 TemperatureHumidityPressure
High79 °F (Apr 18, 5:53 PM)100% (Apr 16, 10:53 AM)30.42 "Hg (Apr 16, 10:53 AM)
Low33 °F (Apr 4, 7:53 AM)27% (Apr 5, 1:53 PM)29.66 "Hg (Apr 9, 10:53 PM)
Average59 °F69%30.06 "Hg
* Reported Apr 4 2:53 AM — Apr 19 2:53 AM, Vincennes, Weather by CustomWeather, © 2015

Note: Actual official high and low records may vary slightly from our data, if they occured in-between our weather recording intervals... More about our weather records

Advertising

Vincennes weather history for previous 24 hours

 ConditionsComfort  
Time TempWeatherWind HumidityBarometerVisibility
2:53 AM
Sun, Apr 19
65 °FPassing clouds.8 mph54%29.82 "Hg10 mi
1:53 AM65 °FClear.8 mph54%29.83 "Hg10 mi
12:53 AM57 °FClear.9 mph72%29.86 "Hg10 mi
11:53 PM
Sat, Apr 18
64 °FClear.7 mph56%29.88 "Hg10 mi
10:53 PM67 °FClear.8 mph49%29.90 "Hg10 mi
9:53 PM70 °FClear.8 mph46%29.90 "Hg10 mi
8:53 PM70 °FSunny.7 mph49%29.90 "Hg10 mi
7:53 PM72 °FSunny.7 mph49%29.90 "Hg10 mi
6:53 PM76 °FSunny.8 mph42%29.90 "Hg10 mi
5:53 PM79 °FSunny.8 mph39%29.90 "Hg10 mi
4:53 PM76 °FSunny.12 mph43%29.93 "Hg10 mi
3:53 PM78 °FSunny.6 mph40%29.95 "Hg10 mi
2:53 PM78 °FSunny.9 mph37%29.98 "Hg10 mi
1:53 PM77 °FSunny.10 mph45%30.00 "Hg10 mi
12:53 PM76 °FSunny.6 mph50%30.03 "Hg10 mi
11:53 AM74 °FSunny.3 mph53%30.02 "Hg10 mi
10:53 AM68 °FSunny.6 mph65%30.02 "Hg10 mi
9:53 AM60 °FSunny.No wind90%30.02 "Hg9 mi
8:53 AM57 °FSunny.3 mph93%30.02 "Hg8 mi
7:53 AM55 °FClear.No wind90%30.03 "Hg10 mi
6:53 AM54 °FClear.5 mph93%30.02 "Hg10 mi
5:53 AM54 °FClear.6 mph93%30.01 "Hg10 mi
4:53 AM54 °FClear.5 mph93%30.01 "Hg10 mi
Weather by CustomWeather, © 2015

See weather overviewHow to use our weather pages